Regional Weather Roundup
Issued by NWS State College, PA

Home | Current Version | Previous Version | Text Only | Print | Product List | Glossary On
Versions: 1 2 3 4 5 6 7 8 9 10 11 12 13 14 15 16 17 18 19 20 21 22 23 24 25 26 27 28 29 30 31 32 33 34 35 36 37 38 39 40 41 42 43 44 45 46 47 48 49 50
000
ASUS41 KCTP 012110
RWRCTP

REGIONAL WEATHER ROUNDUP
NATIONAL WEATHER SERVICE STATE COLLEGE PA
500 PM EDT SUN MAY 01 2016

Note: "fair" indicates few or no clouds below 12,000 feet with no
significant weather and/or obstructions to visibility.

* = STATION THAT DOES NOT REPORT PRECIPITATION /E.G. RAIN...SNOW...ETC/
    THUNDER OR FOG.

PAZ002>004-007>009-013>016-020>023-029>032-012200-
WESTERN PENNSYLVANIA

CITY           SKY/WX    TMP DP  RH WIND       PRES   REMARKS
ERIE           CLOUDY    51  49  92 N5        29.96R FOG
MEADVILLE        N/A    N/A N/A N/A MISG      29.92S
FRANKLIN*      PTSUNNY   70  54  56 SW12      29.92F
NEW CASTLE     FAIR      70  57  63 SW6       29.91S
BEAVER COUNTY  NOT AVBL
BUTLER*        MOSUNNY   70  57  64 SW7       29.93F
PITTSBURGH INT PTSUNNY   72  53  51 W5        29.91F
PITTSBURGH     MOSUNNY   72  59  63 SW9       29.91F
INDIANA*       SUNNY     70  63  78 VRB6      29.95F
LATROBE        PTSUNNY   66  64  94 W6        29.93F
WASHINGTON CO* CLOUDY    64  59  82 SW3G16    29.93F
$$

PAZ004>006-010>012-017>019-024>028-033>037-041-042-045-046-049>053-012200-
CENTRAL PENNSYLVANIA

CITY           SKY/WX    TMP DP  RH WIND       PRES   REMARKS
BRADFORD       PTSUNNY   59  55  87 SE9       29.92S
DUBOIS         PTSUNNY   63  59  87 SE6       29.92S
CLEARFIELD     LGT RAIN  56  52  86 N7        29.97R
JOHNSTOWN      PTSUNNY   66  52  60 W8        29.95F
ALTOONA        CLOUDY    56  53  90 SE8       29.98S
STATE COLLEGE  CLOUDY    50  48  93 CALM      29.99F
WILLIAMSPORT   CLOUDY    49  45  86 E8        30.02F
SELINSGROVE    CLOUDY    49  46  90 SE6       30.04F
FT INDIANTOWN  CLOUDY    48  48 100 E6        30.04F FOG
CAPITAL CITY   CLOUDY    54  49  83 E7        30.03F HAZE
HARRISBURG     DRIZZLE   52  49  89 E9        30.02F FOG
YORK           CLOUDY    53  51  93 E5        30.03F
$$

PAZ038>040-043-044-047-048-054-055-060>062-067>071-012200-
EASTERN PENNSYLVANIA

CITY           SKY/WX    TMP DP  RH WIND       PRES   REMARKS
SCRANTON       CLOUDY    49  43  80 S6        30.03F
MOUNT POCONO   LGT RAIN  42  41  96 SE12      30.05F FOG
ALLENTOWN      CLOUDY    51  47  86 SE5       30.07F
QUAKERTOWN*    CLOUDY    50  48  93 SE7       30.08F
READING        CLOUDY    51  47  86 E6        30.05F
LANCASTER      CLOUDY    51  50  96 E8        30.03F FOG
COATESVILLE    CLOUDY    50  50 100 CALM      30.06F FOG
POTTSTOWN      CLOUDY    50  48  93 VRB5      30.08F
BLUE BELL      CLOUDY    50  48  93 SE3       30.07F
DOYLESTOWN     CLOUDY    48  47  96 VRB3      30.07F
WILLOW GROVE   NOT AVBL
NORTH PHILA    CLOUDY    53  50  89 E7        30.09F
PHILADELPHIA   LGT RAIN  53  49  86 E6        30.07F FOG
$$




USA.gov is the U.S. government's official web portal to all federal, state and local government web resources and services.